Time,TemperatureF,DewpointF,PressureIn,WindDirection,WindDirectionDegrees,WindSpeedMPH,WindSpeedGustMPH,Humidity,HourlyPrecipIn,Conditions,Clouds,dailyrainin,SoftwareType,DateUTC
2013-01-12 00:02:00,15.0,9.0,29.86,WSW,257,4.0,10.0,77,0.00,,,0.01,,2013-01-12 06:02:00,
2013-01-12 00:12:00,15.0,9.0,29.86,WSW,257,4.0,10.0,77,0.00,,,0.01,,2013-01-12 06:12:00,
2013-01-12 00:22:00,14.0,8.0,29.88,WSW,240,4.0,8.0,76,0.00,,,0.01,,2013-01-12 06:22:00,
2013-01-12 00:32:00,14.0,8.0,29.88,WSW,257,4.0,9.0,76,0.00,,,0.01,,2013-01-12 06:32:00,
2013-01-12 00:42:00,14.0,8.0,29.88,WSW,257,4.0,9.0,76,0.00,,,0.01,,2013-01-12 06:42:00,
2013-01-12 00:52:00,14.0,8.0,29.88,SW,233,6.0,11.0,76,0.00,,,0.01,,2013-01-12 06:52:00,
2013-01-12 01:02:00,13.0,7.0,29.90,SW,232,5.0,9.0,76,0.00,,,0.01,,2013-01-12 07:02:00,
2013-01-12 01:12:00,13.0,7.0,29.90,SW,232,5.0,9.0,76,0.00,,,0.01,,2013-01-12 07:12:00,
2013-01-12 01:22:00,13.0,7.0,29.90,SW,214,5.0,12.0,76,0.00,,,0.01,,2013-01-12 07:22:00,
2013-01-12 01:32:00,13.0,7.0,29.90,SW,226,8.0,13.0,75,0.00,,,0.01,,2013-01-12 07:32:00,
2013-01-12 01:42:00,13.0,7.0,29.90,SW,226,8.0,13.0,75,0.00,,,0.01,,2013-01-12 07:42:00,
2013-01-12 01:52:00,13.0,6.0,29.91,WSW,249,6.0,16.0,74,0.00,,,0.01,,2013-01-12 07:52:00,
2013-01-12 02:02:00,12.0,6.0,29.91,WSW,244,6.0,14.0,75,0.00,,,0.01,,2013-01-12 08:02:00,
2013-01-12 02:12:00,12.0,6.0,29.91,WSW,244,6.0,14.0,75,0.00,,,0.01,,2013-01-12 08:12:00,
2013-01-12 02:22:00,12.0,6.0,29.92,West,261,5.0,12.0,75,0.00,,,0.01,,2013-01-12 08:22:00,
2013-01-12 02:32:00,12.0,5.0,29.93,WSW,244,7.0,15.0,74,0.00,,,0.01,,2013-01-12 08:32:00,
2013-01-12 02:42:00,12.0,5.0,29.93,WSW,244,7.0,15.0,74,0.00,,,0.01,,2013-01-12 08:42:00,
2013-01-12 02:52:00,12.0,5.0,29.93,WSW,251,6.0,12.0,74,0.00,,,0.01,,2013-01-12 08:52:00,
2013-01-12 03:02:00,11.0,4.0,29.94,West,262,5.0,12.0,74,0.00,,,0.01,,2013-01-12 09:02:00,
2013-01-12 03:12:00,11.0,4.0,29.94,West,262,5.0,12.0,74,0.00,,,0.01,,2013-01-12 09:12:00,
2013-01-12 03:22:00,11.0,5.0,29.95,WSW,237,6.0,12.0,75,0.00,,,0.01,,2013-01-12 09:22:00,
2013-01-12 03:32:00,11.0,5.0,29.96,SW,223,6.0,12.0,76,0.00,,,0.01,,2013-01-12 09:32:00,
2013-01-12 03:42:00,11.0,5.0,29.96,SW,223,6.0,12.0,76,0.00,,,0.01,,2013-01-12 09:42:00,
2013-01-12 03:53:00,12.0,4.0,29.96,WNW,287,8.0,17.0,71,0.00,,,0.01,,2013-01-12 09:53:00,
2013-01-12 04:02:00,11.0,3.0,29.96,West,271,7.0,16.0,71,0.00,,,0.01,,2013-01-12 10:02:00,
2013-01-12 04:12:00,11.0,3.0,29.96,West,271,7.0,16.0,71,0.00,,,0.01,,2013-01-12 10:12:00,
2013-01-12 04:22:00,11.0,3.0,29.96,SW,232,5.0,13.0,71,0.00,,,0.01,,2013-01-12 10:22:00,
2013-01-12 04:32:00,10.0,3.0,29.97,WSW,237,5.0,11.0,72,0.00,,,0.00,,2013-01-12 10:32:00,
2013-01-12 04:42:00,10.0,3.0,29.97,WSW,237,5.0,11.0,72,0.00,,,0.00,,2013-01-12 10:42:00,
2013-01-12 04:52:00,10.0,3.0,29.97,WSW,240,4.0,10.0,73,0.00,,,0.00,,2013-01-12 10:52:00,
2013-01-12 05:02:00,9.0,3.0,29.98,West,265,4.0,8.0,75,0.00,,,0.00,,2013-01-12 11:02:00,
2013-01-12 05:12:00,9.0,3.0,29.98,West,265,4.0,8.0,75,0.00,,,0.00,,2013-01-12 11:12:00,
2013-01-12 05:22:00,9.0,3.0,29.98,WSW,240,5.0,10.0,75,0.00,,,0.00,,2013-01-12 11:22:00,
2013-01-12 05:32:00,9.0,2.0,29.98,WSW,254,6.0,12.0,74,0.00,,,0.00,,2013-01-12 11:32:00,
2013-01-12 05:42:00,9.0,2.0,29.98,WSW,254,6.0,12.0,74,0.00,,,0.00,,2013-01-12 11:42:00,
2013-01-12 05:52:00,9.0,2.0,29.98,West,266,6.0,13.0,74,0.00,,,0.00,,2013-01-12 11:52:00,
2013-01-12 06:03:00,8.0,1.0,29.99,WSW,242,6.0,12.0,74,0.00,,,0.00,,2013-01-12 12:03:00,
2013-01-12 06:12:00,8.0,1.0,29.99,WSW,242,6.0,12.0,74,0.00,,,0.00,,2013-01-12 12:12:00,
2013-01-12 06:22:00,8.0,2.0,30.00,WSW,241,3.0,10.0,75,0.00,,,0.00,,2013-01-12 12:22:00,
2013-01-12 06:32:00,8.0,2.0,30.00,WSW,246,4.0,9.0,75,0.00,,,0.00,,2013-01-12 12:32:00,
2013-01-12 06:42:00,8.0,2.0,30.00,WSW,246,4.0,9.0,75,0.00,,,0.00,,2013-01-12 12:42:00,
2013-01-12 06:52:00,8.0,1.0,30.00,SW,236,6.0,13.0,73,0.00,,,0.00,,2013-01-12 12:52:00,
2013-01-12 07:02:00,8.0,1.0,30.02,WSW,246,7.0,13.0,72,0.00,,,0.00,,2013-01-12 13:02:00,
2013-01-12 07:12:00,8.0,1.0,30.02,WSW,246,7.0,13.0,72,0.00,,,0.00,,2013-01-12 13:12:00,
2013-01-12 07:22:00,8.0,1.0,30.02,West,262,6.0,15.0,72,0.00,,,0.00,,2013-01-12 13:22:00,
2013-01-12 07:33:00,8.0,1.0,30.03,WSW,250,6.0,12.0,71,0.00,,,0.00,,2013-01-12 13:33:00,
2013-01-12 07:42:00,8.0,1.0,30.03,WSW,250,6.0,12.0,71,0.00,,,0.00,,2013-01-12 13:42:00,
2013-01-12 07:53:00,8.0,1.0,30.05,SW,218,5.0,14.0,71,0.00,,,0.00,,2013-01-12 13:53:00,
2013-01-12 08:02:00,7.0,0.0,30.06,WSW,257,3.0,11.0,71,0.00,,,0.00,,2013-01-12 14:02:00,
2013-01-12 08:12:00,7.0,0.0,30.06,WSW,257,3.0,11.0,71,0.00,,,0.00,,2013-01-12 14:12:00,
2013-01-12 08:22:00,7.0,0.0,30.06,West,260,1.0,6.0,72,0.00,,,0.00,,2013-01-12 14:22:00,
2013-01-12 08:33:00,7.0,0.0,30.07,WSW,253,4.0,8.0,73,0.00,,,0.00,,2013-01-12 14:33:00,
2013-01-12 08:43:00,7.0,0.0,30.07,WSW,253,4.0,8.0,73,0.00,,,0.00,,2013-01-12 14:43:00,
2013-01-12 08:53:00,7.0,0.0,30.08,WSW,240,3.0,7.0,73,0.00,,,0.00,,2013-01-12 14:53:00,
2013-01-12 09:03:00,7.0,0.0,30.09,WSW,249,3.0,8.0,74,0.00,,,0.00,,2013-01-12 15:03:00,
2013-01-12 09:12:00,7.0,0.0,30.09,WSW,249,3.0,8.0,74,0.00,,,0.00,,2013-01-12 15:12:00,
2013-01-12 09:22:00,7.0,0.0,30.10,WSW,254,3.0,11.0,73,0.00,,,0.00,,2013-01-12 15:22:00,
2013-01-12 09:33:00,8.0,1.0,30.10,SW,233,3.0,12.0,72,0.00,,,0.00,,2013-01-12 15:33:00,
2013-01-12 09:43:00,8.0,1.0,30.10,SW,233,3.0,12.0,72,0.00,,,0.00,,2013-01-12 15:43:00,
2013-01-12 09:53:00,8.0,1.0,30.11,SW,236,5.0,12.0,71,0.00,,,0.00,,2013-01-12 15:53:00,
2013-01-12 10:03:00,9.0,1.0,30.13,WSW,254,6.0,13.0,70,0.00,,,0.00,,2013-01-12 16:03:00,
2013-01-12 10:12:00,9.0,1.0,30.13,WSW,254,6.0,13.0,70,0.00,,,0.00,,2013-01-12 16:12:00,
2013-01-12 10:23:00,9.0,2.0,30.15,NNW,339,5.0,14.0,71,0.00,,,0.00,,2013-01-12 16:23:00,
2013-01-12 10:33:00,10.0,2.0,30.15,WSW,239,4.0,9.0,70,0.00,,,0.00,,2013-01-12 16:33:00,
2013-01-12 10:42:00,10.0,2.0,30.15,WSW,239,4.0,9.0,70,0.00,,,0.00,,2013-01-12 16:42:00,
2013-01-12 10:53:00,10.0,2.0,30.17,WNW,284,3.0,7.0,70,0.00,,,0.00,,2013-01-12 16:53:00,
2013-01-12 11:02:00,11.0,3.0,30.17,SSW,205,2.0,9.0,70,0.00,,,0.00,,2013-01-12 17:02:00,
2013-01-12 11:12:00,11.0,3.0,30.17,SSW,205,2.0,9.0,70,0.00,,,0.00,,2013-01-12 17:12:00,
2013-01-12 11:22:00,12.0,3.0,30.17,WSW,241,4.0,9.0,67,0.00,,,0.00,,2013-01-12 17:22:00,
2013-01-12 11:33:00,12.0,3.0,30.17,SSW,209,3.0,12.0,66,0.00,,,0.00,,2013-01-12 17:33:00,
2013-01-12 11:42:00,12.0,3.0,30.17,SSW,209,3.0,12.0,66,0.00,,,0.00,,2013-01-12 17:42:00,
2013-01-12 11:53:00,13.0,4.0,30.17,WSW,248,4.0,11.0,66,0.00,,,0.00,,2013-01-12 17:53:00,
2013-01-12 12:03:00,14.0,4.0,30.15,WSW,243,4.0,11.0,65,0.00,,,0.00,,2013-01-12 18:03:00,
2013-01-12 12:12:00,14.0,4.0,30.15,WSW,243,4.0,11.0,65,0.00,,,0.00,,2013-01-12 18:12:00,
2013-01-12 12:23:00,14.0,4.0,30.16,WSW,248,4.0,13.0,64,0.00,,,0.00,,2013-01-12 18:23:00,
2013-01-12 12:33:00,14.0,4.0,30.16,WSW,238,5.0,11.0,65,0.00,,,0.00,,2013-01-12 18:33:00,
2013-01-12 12:42:00,14.0,4.0,30.16,WSW,238,5.0,11.0,65,0.00,,,0.00,,2013-01-12 18:42:00,
2013-01-12 12:53:00,14.0,4.0,30.15,WSW,252,4.0,16.0,63,0.00,,,0.00,,2013-01-12 18:53:00,
2013-01-12 13:03:00,15.0,5.0,30.13,West,270,4.0,8.0,63,0.00,,,0.00,,2013-01-12 19:03:00,
2013-01-12 13:12:00,15.0,5.0,30.13,West,270,4.0,8.0,63,0.00,,,0.00,,2013-01-12 19:12:00,
2013-01-12 13:23:00,16.0,5.0,30.14,WSW,257,4.0,10.0,61,0.00,,,0.00,,2013-01-12 19:23:00,
2013-01-12 13:33:00,16.0,5.0,30.14,WSW,241,5.0,12.0,60,0.00,,,0.00,,2013-01-12 19:33:00,
2013-01-12 13:43:00,16.0,5.0,30.14,WSW,241,5.0,12.0,60,0.00,,,0.00,,2013-01-12 19:43:00,
2013-01-12 13:53:00,16.0,5.0,30.14,WSW,242,6.0,17.0,60,0.00,,,0.00,,2013-01-12 19:53:00,
2013-01-12 14:02:00,17.0,6.0,30.13,SW,236,5.0,11.0,61,0.00,,,0.00,,2013-01-12 20:02:00,
2013-01-12 14:12:00,17.0,6.0,30.13,SW,236,5.0,11.0,61,0.00,,,0.00,,2013-01-12 20:12:00,
2013-01-12 14:22:00,17.0,6.0,30.12,WSW,240,4.0,14.0,61,0.00,,,0.00,,2013-01-12 20:22:00,
2013-01-12 14:33:00,17.0,6.0,30.12,WSW,238,4.0,11.0,60,0.00,,,0.00,,2013-01-12 20:33:00,
2013-01-12 14:42:00,17.0,6.0,30.12,WSW,238,4.0,11.0,60,0.00,,,0.00,,2013-01-12 20:42:00,
2013-01-12 14:53:00,17.0,6.0,30.11,WSW,247,5.0,12.0,62,0.00,,,0.00,,2013-01-12 20:53:00,
2013-01-12 15:03:00,17.0,6.0,30.12,WSW,239,3.0,16.0,62,0.00,,,0.00,,2013-01-12 21:03:00,
2013-01-12 15:12:00,17.0,6.0,30.12,WSW,239,3.0,16.0,62,0.00,,,0.00,,2013-01-12 21:12:00,
2013-01-12 15:22:00,16.0,5.0,30.14,WSW,242,6.0,11.0,61,0.00,,,0.00,,2013-01-12 21:22:00,
2013-01-12 15:33:00,16.0,5.0,30.14,WSW,242,6.0,11.0,61,0.00,,,0.00,,2013-01-12 21:33:00,
2013-01-12 15:43:00,16.0,5.0,30.14,WSW,242,6.0,11.0,61,0.00,,,0.00,,2013-01-12 21:43:00,
2013-01-12 15:53:00,17.0,6.0,30.14,SW,233,5.0,13.0,61,0.00,,,0.00,,2013-01-12 21:53:00,
2013-01-12 16:02:00,16.0,5.0,30.14,SW,229,2.0,13.0,62,0.00,,,0.00,,2013-01-12 22:02:00,
2013-01-12 16:12:00,16.0,5.0,30.14,SW,229,2.0,13.0,62,0.00,,,0.00,,2013-01-12 22:12:00,
2013-01-12 16:22:00,16.0,5.0,30.14,SW,229,2.0,13.0,62,0.00,,,0.00,,2013-01-12 22:22:00,
2013-01-12 16:33:00,16.0,5.0,30.14,SW,235,3.0,9.0,62,0.00,,,0.00,,2013-01-12 22:33:00,
2013-01-12 16:43:00,16.0,5.0,30.14,SW,235,3.0,9.0,62,0.00,,,0.00,,2013-01-12 22:43:00,
2013-01-12 16:53:00,16.0,5.0,30.17,West,271,2.0,9.0,62,0.00,,,0.00,,2013-01-12 22:53:00,
2013-01-12 17:03:00,16.0,6.0,30.17,SW,234,2.0,7.0,64,0.00,,,0.00,,2013-01-12 23:03:00,
2013-01-12 17:12:00,16.0,6.0,30.17,SW,234,2.0,7.0,64,0.00,,,0.00,,2013-01-12 23:12:00,
2013-01-12 17:22:00,15.0,5.0,30.18,SW,236,1.0,7.0,63,0.00,,,0.00,,2013-01-12 23:22:00,
2013-01-12 17:33:00,13.0,4.0,30.18,SSE,164,2.0,6.0,66,0.00,,,0.00,,2013-01-12 23:33:00,
2013-01-12 17:43:00,13.0,4.0,30.18,SSE,164,2.0,6.0,66,0.00,,,0.00,,2013-01-12 23:43:00,
2013-01-12 17:53:00,13.0,4.0,30.19,WSW,240,1.0,4.0,68,0.00,,,0.00,,2013-01-12 23:53:00,
2013-01-12 18:03:00,12.0,4.0,30.19,WSW,240,0.0,3.0,69,0.00,,,0.00,,2013-01-13 00:03:00,
2013-01-12 18:12:00,12.0,4.0,30.19,WSW,240,0.0,3.0,69,0.00,,,0.00,,2013-01-13 00:12:00,
2013-01-12 18:22:00,11.0,3.0,30.21,West,261,0.0,3.0,70,0.00,,,0.00,,2013-01-13 00:22:00,
2013-01-12 18:33:00,11.0,3.0,30.22,WSW,250,0.0,3.0,71,0.00,,,0.00,,2013-01-13 00:33:00,
2013-01-12 18:43:00,11.0,3.0,30.22,WSW,250,0.0,3.0,71,0.00,,,0.00,,2013-01-13 00:43:00,
2013-01-12 18:53:00,11.0,4.0,30.23,West,273,0.0,3.0,72,0.00,,,0.00,,2013-01-13 00:53:00,
2013-01-12 19:02:00,10.0,3.0,30.23,WSW,254,0.0,3.0,72,0.00,,,0.00,,2013-01-13 01:02:00,
2013-01-12 19:12:00,10.0,3.0,30.23,WSW,254,0.0,3.0,72,0.00,,,0.00,,2013-01-13 01:12:00,
2013-01-12 19:22:00,8.0,1.0,30.23,WSW,251,0.0,2.0,73,0.00,,,0.00,,2013-01-13 01:22:00,
2013-01-12 19:32:00,8.0,1.0,30.23,West,265,0.0,3.0,74,0.00,,,0.00,,2013-01-13 01:32:00,
2013-01-12 19:43:00,8.0,1.0,30.23,West,265,0.0,3.0,74,0.00,,,0.00,,2013-01-13 01:43:00,
2013-01-12 19:53:00,7.0,1.0,30.24,West,265,0.0,0.0,75,0.00,,,0.00,,2013-01-13 01:53:00,
2013-01-12 20:02:00,7.0,1.0,30.24,WSW,257,0.0,4.0,75,0.00,,,0.00,,2013-01-13 02:02:00,
2013-01-12 20:12:00,7.0,1.0,30.24,WSW,257,0.0,4.0,75,0.00,,,0.00,,2013-01-13 02:12:00,
2013-01-12 20:22:00,7.0,1.0,30.24,WSW,252,1.0,4.0,76,0.00,,,0.00,,2013-01-13 02:22:00,
2013-01-12 20:32:00,6.0,0.0,30.24,WSW,250,0.0,3.0,76,0.00,,,0.00,,2013-01-13 02:32:00,
2013-01-12 20:42:00,6.0,0.0,30.24,WSW,250,0.0,3.0,76,0.00,,,0.00,,2013-01-13 02:42:00,
2013-01-12 20:53:00,6.0,0.0,30.24,WSW,250,0.0,2.0,77,0.00,,,0.00,,2013-01-13 02:53:00,
2013-01-12 21:02:00,5.0,-1.0,30.24,West,259,0.0,3.0,77,0.00,,,0.00,,2013-01-13 03:02:00,
2013-01-12 21:12:00,5.0,-1.0,30.24,West,259,0.0,3.0,77,0.00,,,0.00,,2013-01-13 03:12:00,
2013-01-12 21:22:00,5.0,-1.0,30.24,WSW,239,2.0,5.0,77,0.00,,,0.00,,2013-01-13 03:22:00,
2013-01-12 21:33:00,4.0,-2.0,30.24,West,259,2.0,6.0,77,0.00,,,0.00,,2013-01-13 03:33:00,
2013-01-12 21:42:00,4.0,-2.0,30.24,West,259,2.0,6.0,77,0.00,,,0.00,,2013-01-13 03:42:00,
2013-01-12 21:53:00,4.0,-1.0,30.24,WSW,248,1.0,4.0,78,0.00,,,0.00,,2013-01-13 03:53:00,
2013-01-12 22:02:00,3.0,-2.0,30.24,WSW,244,1.0,5.0,78,0.00,,,0.00,,2013-01-13 04:02:00,
2013-01-12 22:12:00,3.0,-2.0,30.24,WSW,244,1.0,5.0,78,0.00,,,0.00,,2013-01-13 04:12:00,
2013-01-12 22:22:00,3.0,-2.0,30.24,SW,236,0.0,3.0,78,0.00,,,0.00,,2013-01-13 04:22:00,
2013-01-12 22:32:00,3.0,-2.0,30.24,WSW,253,0.0,4.0,78,0.00,,,0.00,,2013-01-13 04:32:00,
2013-01-12 22:42:00,3.0,-2.0,30.24,WSW,253,0.0,4.0,78,0.00,,,0.00,,2013-01-13 04:42:00,
2013-01-12 22:53:00,3.0,-2.0,30.25,WSW,243,2.0,6.0,79,0.00,,,0.00,,2013-01-13 04:53:00,
2013-01-12 23:03:00,3.0,-2.0,30.25,WSW,246,1.0,6.0,78,0.00,,,0.00,,2013-01-13 05:03:00,
2013-01-12 23:12:00,3.0,-2.0,30.25,WSW,246,1.0,6.0,78,0.00,,,0.00,,2013-01-13 05:12:00,
2013-01-12 23:22:00,3.0,-2.0,30.25,WSW,246,3.0,7.0,78,0.00,,,0.00,,2013-01-13 05:22:00,
2013-01-12 23:32:00,3.0,-2.0,30.26,WSW,238,1.0,7.0,78,0.00,,,0.00,,2013-01-13 05:32:00,
2013-01-12 23:42:00,3.0,-2.0,30.26,WSW,238,1.0,7.0,78,0.00,,,0.00,,2013-01-13 05:42:00,
2013-01-12 23:53:00,3.0,-2.0,30.26,WSW,244,4.0,7.0,78,0.00,,,0.00,,2013-01-13 05:53:00,